Showing default

IRIDIUM 107, 42960

Orbit data source: Space-Track

IRIDIUM 107, 42960 is a payload satellite owned by Iridium (US) in LEO that was launched on Mon, 09 Oct 2017 UTC via an FALCON 9 launch vehicle from the Air Force Western Test Range (AFWTR). Payload-class satellites include a variety of spacecraft equipped with specific instruments for various scientific and technological missions. These include communications satellites like Starlink; space stations such as the ISS; scientific satellites like the Hubble; Earth observation satellites from companies like Planet Labs, Umbra, and HawkEye 360; GPS; miniature CubeSats for education and research; and military/defense satellites.

Loading next visibility...
Identifier
42960, 2017-061F
Orbit
LEO
Country
Flag of USUS
Related business
Manufacturer
OATK SSG Gilbert
Mission
Operational Commercial Communications
Bus & Motor
ELITEBUS, Unknown motor
Mass
860 kg wet, 700 kg dry
Launch date (UTC)
2017-10-09 (8 years ago)
Launch vehicle
FALCON 9
Launch site
Air Force Western Test Range (AFWTR)
Object type
Payload
Rocket body
Debris
Shape & HBR
Trap Box + 2 Pan, 4.7 m
Radar Cross Section
14.423 m², Large (>1 m²)

Expand to show TLE details & history
Last TLE update: 15 hours ago

TLE from 15 hours ago
0 IRIDIUM 107
1 42960U 17061F   25259.58336610  .00000180  00000-0  57165-4 0  9998
2 42960  86.3998 139.6683 0002456  91.7548 268.3929 14.34220614415605
Epoch: 2025-09-16T14:00Z
TLE epoch observation values (Epoch: 2025-09-16T14:00:02.831Z)
Latitude
-0.00001°
Longitude
-66.11508°
Altitude
780.758 km
Speed
7.463 km/s
True Right ascension
09h 18m 40s
True Declination
0° 00' 00"
Sunlit
Object was in daylight at epoch
Visualization orbit readout
Latitude
Unknown
Longitude
Unknown
Altitude
Unknown
Speed
Unknown
Apparent Right ascension
Unknown
Apparent Declination
Unknown
Sunlit
N/A
Visualization observer readout
Local Sidereal Time
22:06:32
Azimuth
Unknown
Elevation
Unknown
Doppler factor
Unknown
Orbital elements
Apogee altitude
776.379 km
Perigee altitude
772.865 km
Semi-major axis
7,152.759 km
Eccentricity
0.00025
Inclination
86.3998°
RAAN
139.6683°
Arg. of periapsis
91.7548°
True anomaly
268.36477°
Mean anomaly
268.3929°
Eccentric anomaly
268.37883°
Mean motion
3.58784 °/min
Orbital period
100.34 mins
BSTAR
0.000057165
Loading maneuver chart data...
Computing Atmospheric mass density...
Loading historical data...
Loading historical data...
Loading historical data...
Loading historical data...
Loading historical data...
Loading historical data...
Loading historical data...

Documentation

Showing up to 5 results
|